Overview Statistics Trail Chart Weather Telemetry Raw packets
 

This is the latest recevied weather packets stored in our database for station/object N0KTA-2. If no packets are shown the sender has not sent any weather packets the latest 10 day(s).

<< 46 47 48 49 50 51 52 >>
Time Temp. Humidity Pressure Rain* Wind** Luminosity Snow
1787959103 35° C 31% 1010.7 hPa 0 mm - - -
1787958503 35° C 31% 1010.7 hPa 0 mm - - -
1787957902 35° C 30% 1011 hPa 0 mm - - -
1787957304 35° C 30% 1011.1 hPa 0 mm - - -
1787956703 35° C 29% 1011.1 hPa 0 mm - - -
1787956102 35° C 31% 1011.1 hPa 0 mm - - -
1787955503 35° C 31% 1011.1 hPa 0 mm - - -
1787954903 35.56° C 29% 1011 hPa 0 mm - - -
1787954304 35.56° C 30% 1011.1 hPa 0 mm - - -
1787953703 35.56° C 30% 1011.2 hPa 0 mm - - -
1787953103 35.56° C 30% 1011.5 hPa 0 mm - - -
1787952503 35.56° C 31% 1011.5 hPa 0 mm - - -
1787951903 35.56° C 31% 1011.6 hPa 0 mm - - -
1787951302 35.56° C 31% 1011.8 hPa 0 mm - - -
1787950704 35° C 31% 1012.1 hPa 0 mm - - -
1787950103 35° C 34% 1012.1 hPa 0 mm - - -
1787949502 35° C 33% 1012.4 hPa 0 mm - - -
1787948903 34.44° C 37% 1012.6 hPa 0 mm - - -
1787948302 34.44° C 37% 1012.7 hPa 0 mm - - -
1787947703 34.44° C 38% 1012.8 hPa 0 mm - - -
1787947103 33.89° C 38% 1012.9 hPa 0 mm - - -
1787946504 33.89° C 38% 1013.1 hPa 0 mm - - -
1787945903 33.89° C 39% 1013.2 hPa 0 mm - - -
1787945302 33.89° C 40% 1013.4 hPa 0 mm - - -
1787944703 33.33° C 40% 1013.4 hPa 0 mm - - -

* Rain latest hour (hover to see other rain measurements)
** Current wind speed in m/s (hover to see current wind gust speed)